******************************************************************************* JPL/HORIZONS McNaught (C/2006 P1) 2025-Dec-12 18:07:46 Rec #:90003676 (+COV) Soln.date: 2021-Apr-15_23:30:59 # obs: 331 (2006-2007) IAU76/J2000 helio. ecliptic osc. elements (au, days, deg., period=Julian yrs): EPOCH= 2454065.5 ! 2006-Nov-26.0000000 (TDB) RMSW= n.a. EC= 1.000018815882278 QR= .1707364648528884 TP= 2454113.2988436329 OM= 267.4148026435385 W= 155.9749681149126 IN= 77.83700054890942 A= -9074.061068728695 MA= -5.4502812965308E-5 ADIST= 9.999999E99 PER= 9.999999E99 N= 1.14E-6 ANGMOM= .010052212 DAN= 3.94245 DDN= .17847 L= 82.04948520000001 B= 23.4529837 MOID= .40940601 TP= 2007-Jan-12.7988436329 Comet physical (GM= km^3/s^2; RAD= km): GM= n.a. RAD= n.a. M1= 5.4 M2= 12.9 k1= 20.75 k2= 5. PHCOF= .030 COMET comments 1: soln ref.= JPL#27, data arc: 2006-08-07 to 2007-07-11 2: k1=20.75, k2=5., phase coef.=0.03; ******************************************************************************* ******************************************************************************* Ephemeris / WWW_USER Fri Dec 12 18:07:46 2025 Pasadena, USA / Horizons ******************************************************************************* Target body name: McNaught (C/2006 P1) {source: JPL#27} Center body name: Solar System Barycenter (0) {source: DE441} Center-site name: BODY CENTER ******************************************************************************* Start time : A.D. 1600-Jan-01 00:00:00.0000 TDB Stop time : A.D. 2500-Jan-01 00:00:00.0000 TDB Step-size : 900 calendar years ******************************************************************************* Center geodetic : 0.0, 0.0, 0.0 {E-lon(deg),Lat(deg),Alt(km)} Center cylindric: 0.0, 0.0, 0.0 {E-lon(deg),Dxy(km),Dz(km)} Center radii : (undefined) Keplerian GM : 2.9630927493968080E-04 au^3/d^2 Small perturbers: Yes {source: SB441-N16} Output units : AU-D, deg, Julian Day Number (Tp) Calendar mode : Mixed Julian/Gregorian Output type : GEOMETRIC osculating elements Output format : 10 Reference frame : Ecliptic of J2000.0 ******************************************************************************* Initial IAU76/J2000 heliocentric ecliptic osculating elements (au, days, deg.): EPOCH= 2454065.5 ! 2006-Nov-26.0000000 (TDB) RMSW= n.a. EC= 1.000018815882278 QR= .1707364648528884 TP= 2454113.2988436329 OM= 267.4148026435385 W= 155.9749681149126 IN= 77.83700054890942 Equivalent ICRF heliocentric cartesian coordinates (au, au/d): X= 3.108169182050542E-02 Y=-1.293847674003737E+00 Z=-1.220881115605168E-01 VX= 1.178722771799021E-03 VY= 1.912334650954304E-02 VZ= 9.391595170035781E-03 Comet physical (GM= km^3/s^2; RAD= km): GM= n.a. RAD= n.a. M1= 5.4 M2= 12.9 k1= 20.75 k2= 5. PHCOF= .030 ******************************************************************************* JDTDB EC QR IN OM W Tp N MA TA A AD PR ******************************************************************************* $$SOE 2305447.500000000 = A.D. 1600-Jan-01 00:00:00.0000 TDB EC= 9.999948949931972E-01 QR= 1.700385441953070E-01 IN= 7.765326418204731E+01 OM= 2.674576897086462E+02 W = 1.559955795882894E+02 Tp= 2454112.841510313097 N = 1.622440115528449E-07 MA= 3.599758799386145E+02 TA= 1.826846263949122E+02 A = 3.330819150253270E+04 AD= 6.661621296652120E+04 PR= 2.218880047124226E+09 2634166.500000000 = A.D. 2500-Jan-01 00:00:00.0000 TDB EC= 9.999157531234760E-01 QR= 1.721694243769552E-01 IN= 7.800027434184926E+01 OM= 2.672603637058760E+02 W = 1.560457150447834E+02 Tp= 2454113.685631825589 N = 1.067559099030467E-05 MA= 1.922170202847903E+00 TA= 1.775491790673489E+02 A = 2.043629763855867E+03 AD= 4.087087358287357E+03 PR= 3.372178648722527E+07 $$EOE ******************************************************************************* TIME Barycentric Dynamical Time ("TDB" or T_eph) output was requested. This continuous coordinate time is equivalent to the relativistic proper time of a clock at rest in a reference frame co-moving with the solar system barycenter but outside the system's gravity well. It is the independent variable in the solar system relativistic equations of motion. TDB runs at a uniform rate of one SI second per second and is independent of irregularities in Earth's rotation. CALENDAR SYSTEM Mixed calendar mode was active such that calendar dates after AD 1582-Oct-15 (if any) are in the modern Gregorian system. Dates prior to 1582-Oct-5 (if any) are in the Julian calendar system, which is automatically extended for dates prior to its adoption on 45-Jan-1 BC. The Julian calendar is useful for matching historical dates. The Gregorian calendar more accurately corresponds to the Earth's orbital motion and seasons. A "Gregorian-only" calendar mode is available if such physical events are the primary interest. REFERENCE FRAME AND COORDINATES Ecliptic at the standard reference epoch Reference epoch: J2000.0 X-Y plane: adopted Earth orbital plane at the reference epoch Note: IAU76 obliquity of 84381.448 arcseconds wrt ICRF X-Y plane X-axis : ICRF Z-axis : perpendicular to the X-Y plane in the directional (+ or -) sense of Earth's north pole at the reference epoch. Symbol meaning [1 au= 149597870.700 km, 1 day= 86400.0 s]: JDTDB Julian Day Number, Barycentric Dynamical Time EC Eccentricity, e QR Periapsis distance, q (au) IN Inclination w.r.t X-Y plane, i (degrees) OM Longitude of Ascending Node, OMEGA, (degrees) W Argument of Perifocus, w (degrees) Tp Time of periapsis (Julian Day Number) N Mean motion, n (degrees/day) MA Mean anomaly, M (degrees) TA True anomaly, nu (degrees) A Semi-major axis, a (au) AD Apoapsis distance (au) PR Sidereal orbit period (day) ABERRATIONS AND CORRECTIONS Geometric osculating elements have NO corrections or aberrations applied. Computations by ... Solar System Dynamics Group, Horizons On-Line Ephemeris System 4800 Oak Grove Drive, Jet Propulsion Laboratory Pasadena, CA 91109 USA General site: https://ssd.jpl.nasa.gov/ Mailing list: https://ssd.jpl.nasa.gov/email_list.html System news : https://ssd.jpl.nasa.gov/horizons/news.html User Guide : https://ssd.jpl.nasa.gov/horizons/manual.html Connect : browser https://ssd.jpl.nasa.gov/horizons/app.html#/x API https://ssd-api.jpl.nasa.gov/doc/horizons.html command-line telnet ssd.jpl.nasa.gov 6775 e-mail/batch https://ssd.jpl.nasa.gov/ftp/ssd/horizons_batch.txt scripts https://ssd.jpl.nasa.gov/ftp/ssd/SCRIPTS Author : Jon.D.Giorgini@jpl.nasa.gov ******************************************************************************* !$$SOF CENTER = '@0' COMMAND = '2006 P1' OUT_UNITS = 'AU-D' START_TIME = '1600-01-01' STEP_SIZE = '900 years' STOP_TIME = '2500-01-01' TABLE_TYPE = 'ELEMENTS'